• In Österreich
  • Länderverzeichnis
  • Für 7 Tage
  • Wassertemperatur
  • Satellitenkarten
  • Wetterkarte
  • News
  • Widgets
  • user-avatar
    Anmelden

    Stündliche Wetter Klin

    Heute, 21 August, Dienstag

    Zeit Temperatur Niederschläge Wind Luftdruck Luftfeuchtigkeit
    00:00 +17°C° 0 mm 4 m/S 738 mmHg 94%
    01:00 +17°C° 0 mm 4 m/S 737 mmHg 94%
    02:00 +17°C° 0 mm 4 m/S 737 mmHg 94%
    03:00 +17°C° 0,2 mm 4 m/S 736 mmHg 94%
    04:00 +17°C° 0,2 mm 4 m/S 736 mmHg 94%
    05:00 +16°C° 0,2 mm 5 m/S 735 mmHg 94%
    06:00 +16°C° 0,6 mm 5 m/S 735 mmHg 94%
    07:00 +16°C° 0,6 mm 5 m/S 735 mmHg 93%
    08:00 +17°C° 0,6 mm 5 m/S 734 mmHg 93%
    09:00 +17°C° 0,4 mm 5 m/S 735 mmHg 88%
    10:00 +17°C° 0,4 mm 6 m/S 735 mmHg 84%
    11:00 +19°C° 0,4 mm 6 m/S 735 mmHg 80%
    12:00 +19°C° 0,2 mm 6 m/S 735 mmHg 74%
    13:00 +18°C° 0,2 mm 7 m/S 736 mmHg 67%
    14:00 +18°C° 0,2 mm 7 m/S 736 mmHg 61%
    15:00 +17°C° 0,1 mm 6 m/S 736 mmHg 63%
    16:00 +16°C° 0,1 mm 6 m/S 737 mmHg 65%
    17:00 +16°C° 0,1 mm 5 m/S 737 mmHg 67%
    18:00 +14°C° 0 mm 5 m/S 738 mmHg 72%
    19:00 +13°C° 0 mm 4 m/S 738 mmHg 77%
    20:00 +11°C° 0 mm 3 m/S 738 mmHg 81%
    21:00 +11°C° 0 mm 3 m/S 739 mmHg 82%
    22:00 +11°C° 0 mm 3 m/S 739 mmHg 82%
    23:00 +10°C° 0 mm 4 m/S 739 mmHg 82%

    Morgen, 22 August, Mittwoch

    Zeit Temperatur Niederschläge Wind Luftdruck Luftfeuchtigkeit
    00:00 +10°C° 0 mm 4 m/S 739 mmHg 82%
    01:00 +10°C° 0 mm 4 m/S 740 mmHg 81%
    02:00 +10°C° 0 mm 4 m/S 740 mmHg 81%
    03:00 +10°C° 0 mm 4 m/S 740 mmHg 82%
    04:00 +10°C° 0 mm 4 m/S 741 mmHg 83%
    05:00 +8°C° 0 mm 4 m/S 741 mmHg 85%
    06:00 +11°C° 0 mm 4 m/S 742 mmHg 79%
    07:00 +12°C° 0 mm 5 m/S 742 mmHg 74%
    08:00 +13°C° 0 mm 5 m/S 743 mmHg 68%
    09:00 +14°C° 0 mm 5 m/S 743 mmHg 62%
    10:00 +15°C° 0 mm 5 m/S 744 mmHg 56%
    11:00 +16°C° 0 mm 5 m/S 744 mmHg 50%
    12:00 +16°C° 0 mm 5 m/S 744 mmHg 49%
    13:00 +17°C° 0 mm 5 m/S 745 mmHg 47%
    14:00 +17°C° 0 mm 5 m/S 745 mmHg 45%
    15:00 +18°C° 0 mm 4 m/S 745 mmHg 48%
    16:00 +17°C° 0 mm 4 m/S 745 mmHg 51%
    17:00 +17°C° 0 mm 3 m/S 746 mmHg 54%
    18:00 +14°C° 0 mm 3 m/S 746 mmHg 61%
    19:00 +13°C° 0 mm 2 m/S 747 mmHg 67%
    20:00 +10°C° 0 mm 2 m/S 747 mmHg 73%
    21:00 +10°C° 0 mm 2 m/S 747 mmHg 76%
    22:00 +9°C° 0 mm 2 m/S 748 mmHg 79%
    23:00 +8°C° 0 mm 2 m/S 748 mmHg 82%

    übermorgen, 23 August, Donnerstag

    Zeit Temperatur Niederschläge Wind Luftdruck Luftfeuchtigkeit
    00:00 +8°C° 0 mm 2 m/S 748 mmHg 83%
    01:00 +8°C° 0 mm 2 m/S 749 mmHg 85%
    02:00 +7°C° 0 mm 2 m/S 749 mmHg 86%
    03:00 +7°C° 0 mm 2 m/S 749 mmHg 87%
    04:00 +7°C° 0 mm 2 m/S 749 mmHg 87%
    05:00 +7°C° 0 mm 2 m/S 749 mmHg 88%
    06:00 +9°C° 0 mm 2 m/S 749 mmHg 80%
    07:00 +12°C° 0 mm 2 m/S 749 mmHg 73%
    08:00 +15°C° 0 mm 2 m/S 749 mmHg 65%
    09:00 +16°C° 0 mm 2 m/S 749 mmHg 60%
    10:00 +18°C° 0 mm 3 m/S 749 mmHg 54%
    11:00 +19°C° 0 mm 3 m/S 749 mmHg 48%
    12:00 +20°C° 0 mm 3 m/S 749 mmHg 47%
    13:00 +20°C° 0 mm 3 m/S 749 mmHg 46%
    14:00 +21°C° 0 mm 3 m/S 748 mmHg 45%
    15:00 +20°C° 0 mm 2 m/S 748 mmHg 50%
    16:00 +20°C° 0 mm 2 m/S 748 mmHg 55%
    17:00 +20°C° 0 mm 2 m/S 748 mmHg 60%
    18:00 +18°C° 0 mm 2 m/S 748 mmHg 66%
    19:00 +16°C° 0 mm 2 m/S 748 mmHg 72%
    20:00 +14°C° 0 mm 2 m/S 747 mmHg 78%
    21:00 +13°C° 0 mm 2 m/S 748 mmHg 80%
    22:00 +12°C° 0 mm 2 m/S 748 mmHg 82%
    23:00 +12°C° 0 mm 2 m/S 748 mmHg 84%

    24 August, Freitag

    Zeit Temperatur Niederschläge Wind Luftdruck Luftfeuchtigkeit
    00:00 +10°C° 0 mm 2 m/S 748 mmHg 85%
    01:00 +10°C° 0 mm 2 m/S 748 mmHg 87%
    02:00 +9°C° 0 mm 2 m/S 747 mmHg 89%
    03:00 +9°C° 0 mm 2 m/S 747 mmHg 90%
    04:00 +9°C° 0 mm 2 m/S 747 mmHg 91%
    05:00 +9°C° 0 mm 2 m/S 747 mmHg 93%
    06:00 +12°C° 0 mm 2 m/S 747 mmHg 85%
    07:00 +14°C° 0 mm 2 m/S 747 mmHg 77%
    08:00 +16°C° 0 mm 2 m/S 747 mmHg 69%
    09:00 +17°C° 0 mm 3 m/S 747 mmHg 63%
    10:00 +19°C° 0 mm 3 m/S 746 mmHg 57%
    11:00 +21°C° 0 mm 3 m/S 746 mmHg 51%
    12:00 +21°C° 0 mm 3 m/S 746 mmHg 49%
    13:00 +22°C° 0 mm 3 m/S 746 mmHg 48%
    14:00 +22°C° 0 mm 3 m/S 745 mmHg 47%
    15:00 +22°C° 0 mm 3 m/S 745 mmHg 52%
    16:00 +21°C° 0 mm 2 m/S 745 mmHg 57%
    17:00 +21°C° 0 mm 2 m/S 744 mmHg 62%
    18:00 +19°C° 0 mm 2 m/S 744 mmHg 69%
    19:00 +17°C° 0 mm 2 m/S 744 mmHg 76%
    20:00 +15°C° 0 mm 2 m/S 744 mmHg 83%
    21:00 +14°C° 0 mm 2 m/S 744 mmHg 85%
    22:00 +14°C° 0 mm 2 m/S 744 mmHg 87%
    23:00 +13°C° 0 mm 2 m/S 744 mmHg 89%

    25 August, Samstag

    Zeit Temperatur Niederschläge Wind Luftdruck Luftfeuchtigkeit
    00:00 +13°C° 0 mm 2 m/S 744 mmHg 89%
    01:00 +13°C° 0 mm 2 m/S 744 mmHg 90%
    02:00 +12°C° 0 mm 2 m/S 744 mmHg 91%
    03:00 +12°C° 0 mm 2 m/S 744 mmHg 90%
    04:00 +11°C° 0 mm 3 m/S 744 mmHg 89%
    05:00 +11°C° 0 mm 3 m/S 744 mmHg 88%
    06:00 +13°C° 0 mm 3 m/S 744 mmHg 81%
    07:00 +16°C° 0 mm 3 m/S 743 mmHg 74%
    08:00 +18°C° 0 mm 4 m/S 743 mmHg 66%
    09:00 +19°C° 0 mm 4 m/S 743 mmHg 60%
    10:00 +21°C° 0 mm 4 m/S 743 mmHg 55%
    11:00 +23°C° 0 mm 5 m/S 743 mmHg 49%
    12:00 +25°C° 0 mm 5 m/S 743 mmHg 47%
    13:00 +25°C° 0 mm 5 m/S 743 mmHg 46%
    14:00 +26°C° 0 mm 5 m/S 742 mmHg 44%
    15:00 +25°C° 0 mm 4 m/S 742 mmHg 49%
    16:00 +24°C° 0 mm 3 m/S 742 mmHg 53%
    17:00 +24°C° 0 mm 3 m/S 742 mmHg 58%
    18:00 +21°C° 0 mm 3 m/S 742 mmHg 62%
    19:00 +19°C° 0 mm 3 m/S 742 mmHg 67%
    20:00 +18°C° 0 mm 3 m/S 742 mmHg 72%
    21:00 +17°C° 0 mm 3 m/S 742 mmHg 74%
    22:00 +16°C° 0 mm 2 m/S 743 mmHg 77%
    23:00 +16°C° 0 mm 2 m/S 743 mmHg 79%

    26 August, Sonntag

    Zeit Temperatur Niederschläge Wind Luftdruck Luftfeuchtigkeit
    00:00 +15°C° 0 mm 2 m/S 743 mmHg 80%
    01:00 +15°C° 0 mm 2 m/S 743 mmHg 82%
    02:00 +15°C° 0 mm 2 m/S 744 mmHg 83%
    03:00 +14°C° 0 mm 2 m/S 744 mmHg 83%
    04:00 +14°C° 0 mm 2 m/S 744 mmHg 84%
    05:00 +14°C° 0 mm 1 m/S 744 mmHg 85%
    06:00 +15°C° 0 mm 2 m/S 744 mmHg 79%
    07:00 +17°C° 0 mm 2 m/S 744 mmHg 74%
    08:00 +18°C° 0 mm 2 m/S 745 mmHg 69%
    09:00 +20°C° 0 mm 2 m/S 745 mmHg 64%
    10:00 +22°C° 0 mm 3 m/S 745 mmHg 59%
    11:00 +24°C° 0 mm 3 m/S 745 mmHg 54%
    12:00 +25°C° 0 mm 3 m/S 745 mmHg 52%
    13:00 +26°C° 0 mm 3 m/S 744 mmHg 49%
    14:00 +27°C° 0 mm 4 m/S 744 mmHg 46%
    15:00 +26°C° 0 mm 3 m/S 744 mmHg 50%
    16:00 +25°C° 0 mm 3 m/S 744 mmHg 55%
    17:00 +25°C° 0 mm 2 m/S 744 mmHg 59%
    18:00 +23°C° 0 mm 2 m/S 744 mmHg 64%
    19:00 +20°C° 0 mm 2 m/S 744 mmHg 69%
    20:00 +18°C° 0 mm 2 m/S 744 mmHg 74%
    21:00 +17°C° 0 mm 2 m/S 744 mmHg 75%
    22:00 +16°C° 0 mm 2 m/S 745 mmHg 76%
    23:00 +16°C° 0 mm 2 m/S 745 mmHg 77%
    Mehr zeigen